METAR UND TAF INFORMATION
EDLW 231920Z 06005KT 030V110 CAVOK 29/16 Q1018

 FLUGHAFENKARTE

 RUNWAY INFORMATION
Runway 06 Runway length 6562 ft Runway width 148 ft
Runway elevation 418 ft Runway displaced threshold 984 ft Runway heading 61
Runway 24 Runway length 6562 ft Runway width 148 ft
Runway elevation 401 ft Runway displaced threshold 984 ft Runway heading 241

 AIRPORT FREQUENCIES
Type AFIS Name LANGEN INF Frequency 129.875 MHZ
Type APP Name LANGEN RAD Frequency 125.225 MHZ
Type ATIS Name ATIS Frequency 125.125 MHZ
Type GND Name GND Frequency 121.825 MHZ
Type TWR Name TWR Frequency 134.175 MHZ

 AIRPORT NEAR NAVIGATION AIDS
Type VOR-DME Name Dortmund Frequency 112700 KHZ
Type VOR-DME Name Wickede Frequency 108650 KHZ
Type NDB Name Dortmund Frequency 357 KHZ